カタログに戻る

STARLINK-35594

運用中通信VLEO
NORAD 66157·PAYLOAD·🇺🇸 United States

打ち上げ Oct 25, 2025 から Cape Canaveral Space Force Station

Loading…

次のパス (今後24時間)

TLE

最新Source: CelesTrak SupGP

元期: Sep 15, 2026, 03:40 UTC

1 66157C 25240M   26258.15326389 -.00042454  00000+0 -12542-2 0  2582
2 66157  53.1571 258.8369 0001457  94.2791 194.4510 15.34415293    11

AllMySatでSTARLINK-35594をリアルタイム追跡

Download on the App Store